User: anonymous   Login
Location: downtown San Diego
(32.7310°N, 117.1990°W)
Time: 14:58:26
(UTC-07:00)
Language:

Cosmos 1844 Rocket - Orbit

View from above orbital plane
View from above orbital plane
View from above satellite
View from above satellite

Ground track
Ground track

The orbit data is extracted from the following two-line orbital elements,

1 17974U 87041B   19138.86403236 -.00000244  00000-0 -97007-4 0  9991
2 17974  71.0089 233.5692 0012522  36.0172 102.2117 14.17253179655950
Epoch (UTC): 18 May 2019 20:44:12
Eccentricity: 0.0012522
inclination: 71.0089°
perigee height: 825 km
apogee height: 843 km
right ascension of ascending node: 233.5692°
argument of perigee: 36.0172°
revolutions per day: 14.17253179
mean anomaly at epoch: 102.2117°
orbit number at epoch: 65595

The dashed part of the orbit path shows where the satellite is in the earth's shadow,  

DLR